Time,TemperatureF,DewpointF,PressureIn,WindDirection,WindDirectionDegrees,WindSpeedMPH,WindSpeedGustMPH,Humidity,HourlyPrecipIn,Conditions,Clouds,dailyrainin,SoftwareType,DateUTC
2013-07-08 00:01:00,57.4,51.3,29.91,ENE,68,0.0,0.4,80,0.00,,,0.00,WUHU216HW,2013-07-08 07:01:00,
2013-07-08 00:06:00,57.4,50.9,29.92,NE,45,0.7,0.9,79,0.00,,,0.00,WUHU216HW,2013-07-08 07:06:00,
2013-07-08 00:11:00,57.2,51.1,29.92,NNE,23,0.9,1.1,80,0.00,,,0.00,WUHU216HW,2013-07-08 07:11:00,
2013-07-08 00:16:00,57.2,51.1,29.91,NE,45,0.2,1.3,80,0.00,,,0.00,WUHU216HW,2013-07-08 07:16:00,
2013-07-08 00:22:00,57.2,51.1,29.91,ESE,113,0.0,1.3,80,0.00,,,0.00,WUHU216HW,2013-07-08 07:22:00,
2013-07-08 00:27:00,57.2,51.1,29.91,ENE,68,0.4,0.9,80,0.00,,,0.00,WUHU216HW,2013-07-08 07:27:00,
2013-07-08 00:32:00,57.2,51.1,29.91,NE,45,0.9,1.3,80,0.00,,,0.00,WUHU216HW,2013-07-08 07:32:00,
2013-07-08 00:37:00,57.2,51.5,29.92,NE,45,0.4,1.3,81,0.00,,,0.00,WUHU216HW,2013-07-08 07:37:00,
2013-07-08 00:42:00,57.1,51.3,29.91,ENE,68,0.0,1.1,81,0.00,,,0.00,WUHU216HW,2013-07-08 07:42:00,
2013-07-08 00:47:00,57.1,51.3,29.92,NNE,23,0.2,1.1,81,0.00,,,0.00,WUHU216HW,2013-07-08 07:47:00,
2013-07-08 00:52:00,56.9,51.1,29.91,ENE,68,0.0,1.8,81,0.00,,,0.00,WUHU216HW,2013-07-08 07:52:00,
2013-07-08 00:57:00,56.9,51.1,29.92,NE,45,0.7,1.8,81,0.00,,,0.00,WUHU216HW,2013-07-08 07:57:00,
2013-07-08 01:02:00,56.7,51.0,29.92,NE,45,0.4,1.3,81,0.00,,,0.00,WUHU216HW,2013-07-08 08:02:00,
2013-07-08 01:07:00,56.5,50.8,29.91,North,0,0.4,1.3,81,0.00,,,0.00,WUHU216HW,2013-07-08 08:07:00,
2013-07-08 01:12:00,56.5,50.8,29.92,NNE,23,0.4,2.0,81,0.00,,,0.00,WUHU216HW,2013-07-08 08:12:00,
2013-07-08 01:17:00,56.3,50.6,29.91,NNE,23,0.4,2.0,81,0.00,,,0.00,WUHU216HW,2013-07-08 08:17:00,
2013-07-08 01:22:00,56.2,50.4,29.92,NE,45,1.1,2.0,81,0.00,,,0.00,WUHU216HW,2013-07-08 08:22:00,
2013-07-08 01:27:00,56.2,50.4,29.92,ENE,68,0.4,2.0,81,0.00,,,0.00,WUHU216HW,2013-07-08 08:27:00,
2013-07-08 01:33:00,56.0,50.2,29.91,ENE,68,0.0,0.9,81,0.00,,,0.00,WUHU216HW,2013-07-08 08:33:00,
2013-07-08 01:38:00,55.8,50.3,29.92,NNE,23,0.9,0.9,82,0.00,,,0.00,WUHU216HW,2013-07-08 08:38:00,
2013-07-08 01:43:00,55.8,50.3,29.91,NNE,23,0.7,1.8,82,0.00,,,0.00,WUHU216HW,2013-07-08 08:43:00,
2013-07-08 01:48:00,55.8,50.3,29.90,ENE,68,0.4,1.8,82,0.00,,,0.00,WUHU216HW,2013-07-08 08:48:00,
2013-07-08 01:53:00,55.8,50.3,29.90,North,0,0.2,0.9,82,0.00,,,0.00,WUHU216HW,2013-07-08 08:53:00,
2013-07-08 01:58:00,55.8,50.3,29.91,NNE,23,1.1,2.5,82,0.00,,,0.00,WUHU216HW,2013-07-08 08:58:00,
2013-07-08 02:03:00,55.8,50.3,29.91,NE,45,0.7,2.5,82,0.00,,,0.00,WUHU216HW,2013-07-08 09:03:00,
2013-07-08 02:08:00,55.6,50.5,29.91,North,0,1.6,1.8,83,0.00,,,0.00,WUHU216HW,2013-07-08 09:08:00,
2013-07-08 02:13:00,55.6,50.1,29.90,ESE,113,0.4,1.8,82,0.00,,,0.00,WUHU216HW,2013-07-08 09:13:00,
2013-07-08 02:18:00,55.6,50.1,29.91,ENE,68,0.0,1.6,82,0.00,,,0.00,WUHU216HW,2013-07-08 09:18:00,
2013-07-08 02:23:00,55.6,50.1,29.93,NNE,23,0.4,0.9,82,0.00,,,0.00,WUHU216HW,2013-07-08 09:23:00,
2013-07-08 02:28:00,55.8,50.3,29.91,East,90,0.0,0.9,82,0.00,,,0.00,WUHU216HW,2013-07-08 09:28:00,
2013-07-08 02:34:00,55.6,50.1,29.91,North,0,0.0,1.3,82,0.00,,,0.00,WUHU216HW,2013-07-08 09:34:00,
2013-07-08 02:39:00,55.4,50.0,29.91,ENE,68,0.2,1.8,82,0.00,,,0.00,WUHU216HW,2013-07-08 09:39:00,
2013-07-08 02:44:00,55.4,50.0,29.91,East,90,0.0,1.8,82,0.00,,,0.00,WUHU216HW,2013-07-08 09:44:00,
2013-07-08 02:49:00,55.4,50.3,29.91,East,90,0.0,1.1,83,0.00,,,0.00,WUHU216HW,2013-07-08 09:49:00,
2013-07-08 02:54:00,55.6,50.5,29.90,NNE,23,0.2,1.6,83,0.00,,,0.00,WUHU216HW,2013-07-08 09:54:00,
2013-07-08 02:59:00,55.6,50.5,29.91,ENE,68,0.0,1.6,83,0.00,,,0.00,WUHU216HW,2013-07-08 09:59:00,
2013-07-08 03:04:00,55.6,50.5,29.91,NE,45,0.2,1.3,83,0.00,,,0.00,WUHU216HW,2013-07-08 10:04:00,
2013-07-08 03:09:00,55.6,50.1,29.92,ENE,68,0.4,1.3,82,0.00,,,0.00,WUHU216HW,2013-07-08 10:09:00,
2013-07-08 03:14:00,55.4,50.3,29.87,NE,45,0.0,0.4,83,0.00,,,0.00,WUHU216HW,2013-07-08 10:14:00,
2013-07-08 03:20:00,55.4,50.3,29.88,NE,45,0.4,0.7,83,0.00,,,0.00,WUHU216HW,2013-07-08 10:20:00,
2013-07-08 03:25:00,55.3,50.1,29.88,NE,45,0.2,1.6,83,0.00,,,0.00,WUHU216HW,2013-07-08 10:25:00,
2013-07-08 03:30:00,55.1,50.3,29.88,NE,45,0.4,1.6,84,0.00,,,0.00,WUHU216HW,2013-07-08 10:30:00,
2013-07-08 03:35:00,55.1,50.3,29.88,ENE,68,0.2,0.7,84,0.00,,,0.00,WUHU216HW,2013-07-08 10:35:00,
2013-07-08 03:40:00,55.1,50.3,29.87,NNE,23,0.4,0.9,84,0.00,,,0.00,WUHU216HW,2013-07-08 10:40:00,
2013-07-08 03:45:00,55.1,50.3,29.89,NE,45,0.0,0.9,84,0.00,,,0.00,WUHU216HW,2013-07-08 10:45:00,
2013-07-08 03:50:00,55.1,50.3,29.89,East,90,0.2,0.7,84,0.00,,,0.00,WUHU216HW,2013-07-08 10:50:00,
2013-07-08 03:55:00,55.3,50.5,29.89,ENE,68,0.2,1.1,84,0.00,,,0.00,WUHU216HW,2013-07-08 10:55:00,
2013-07-08 04:00:00,55.1,50.3,29.88,NE,45,0.4,1.1,84,0.00,,,0.00,WUHU216HW,2013-07-08 11:00:00,
2013-07-08 04:06:00,55.1,50.3,29.88,ESE,113,0.0,1.1,84,0.00,,,0.00,WUHU216HW,2013-07-08 11:06:00,
2013-07-08 04:11:00,55.1,50.3,29.88,NE,45,0.9,1.1,84,0.00,,,0.00,WUHU216HW,2013-07-08 11:11:00,
2013-07-08 04:16:00,55.1,50.3,29.88,North,0,0.4,0.9,84,0.00,,,0.00,WUHU216HW,2013-07-08 11:16:00,
2013-07-08 04:21:00,55.1,50.3,29.88,NE,45,0.4,1.8,84,0.00,,,0.00,WUHU216HW,2013-07-08 11:21:00,
2013-07-08 04:26:00,54.9,50.4,29.88,NNE,23,0.4,1.8,85,0.00,,,0.00,WUHU216HW,2013-07-08 11:26:00,
2013-07-08 04:31:00,54.9,50.1,29.89,ESE,113,0.2,1.8,84,0.00,,,0.00,WUHU216HW,2013-07-08 11:31:00,
2013-07-08 04:36:00,54.9,50.4,29.88,NNE,23,0.4,1.1,85,0.00,,,0.00,WUHU216HW,2013-07-08 11:36:00,
2013-07-08 04:41:00,54.9,50.1,29.88,ENE,68,0.0,1.1,84,0.00,,,0.00,WUHU216HW,2013-07-08 11:41:00,
2013-07-08 04:46:00,54.9,50.1,29.89,ENE,68,0.4,0.7,84,0.00,,,0.00,WUHU216HW,2013-07-08 11:46:00,
2013-07-08 04:51:00,54.7,50.2,29.89,NNE,23,0.0,1.6,85,0.00,,,0.00,WUHU216HW,2013-07-08 11:51:00,
2013-07-08 04:56:00,54.7,50.2,29.88,NNE,23,0.4,1.6,85,0.00,,,0.00,WUHU216HW,2013-07-08 11:56:00,
2013-07-08 05:01:00,54.7,50.2,29.89,ENE,68,0.0,1.1,85,0.00,,,0.00,WUHU216HW,2013-07-08 12:01:00,
2013-07-08 05:07:00,54.9,50.4,29.89,ENE,68,0.4,1.1,85,0.00,,,0.00,WUHU216HW,2013-07-08 12:07:00,
2013-07-08 05:12:00,54.9,50.1,29.89,NNE,23,0.0,0.9,84,0.00,,,0.00,WUHU216HW,2013-07-08 12:12:00,
2013-07-08 05:17:00,54.7,50.0,29.88,NE,45,0.0,0.9,84,0.00,,,0.00,WUHU216HW,2013-07-08 12:17:00,
2013-07-08 05:22:00,54.7,50.0,29.89,NE,45,0.0,0.7,84,0.00,,,0.00,WUHU216HW,2013-07-08 12:22:00,
2013-07-08 05:27:00,54.9,50.1,29.88,NNE,23,0.0,0.4,84,0.00,,,0.00,WUHU216HW,2013-07-08 12:27:00,
2013-07-08 05:32:00,54.9,50.1,29.89,NNW,338,0.4,0.9,84,0.00,,,0.00,WUHU216HW,2013-07-08 12:32:00,
2013-07-08 05:37:00,54.9,50.1,29.89,NNW,338,0.0,0.9,84,0.00,,,0.00,WUHU216HW,2013-07-08 12:37:00,
2013-07-08 05:42:00,54.9,50.1,29.88,NNE,23,0.0,0.4,84,0.00,,,0.00,WUHU216HW,2013-07-08 12:42:00,
2013-07-08 05:47:00,55.1,50.3,29.89,NNE,23,0.2,0.4,84,0.00,,,0.00,WUHU216HW,2013-07-08 12:47:00,
2013-07-08 05:52:00,55.1,50.3,29.89,NNE,23,0.0,0.2,84,0.00,,,0.00,WUHU216HW,2013-07-08 12:52:00,
2013-07-08 05:57:00,55.1,50.3,29.89,NNE,23,0.0,0.4,84,0.00,,,0.00,WUHU216HW,2013-07-08 12:57:00,
2013-07-08 06:02:00,54.9,50.1,29.89,NNE,23,0.2,0.4,84,0.00,,,0.00,WUHU216HW,2013-07-08 13:02:00,
2013-07-08 06:07:00,54.9,50.1,29.90,NNE,23,0.0,0.4,84,0.00,,,0.00,WUHU216HW,2013-07-08 13:07:00,
2013-07-08 06:13:00,54.9,50.1,29.88,NNE,23,0.0,0.4,84,0.00,,,0.00,WUHU216HW,2013-07-08 13:13:00,
2013-07-08 06:18:00,54.9,50.1,29.90,NNE,23,0.0,0.2,84,0.00,,,0.00,WUHU216HW,2013-07-08 13:18:00,
2013-07-08 06:23:00,55.1,50.3,29.91,NNE,23,0.0,0.0,84,0.00,,,0.00,WUHU216HW,2013-07-08 13:23:00,
2013-07-08 06:28:00,55.1,50.3,29.90,NNE,23,0.0,0.0,84,0.00,,,0.00,WUHU216HW,2013-07-08 13:28:00,
2013-07-08 06:33:00,55.1,50.3,29.90,NNE,23,0.0,0.0,84,0.00,,,0.00,WUHU216HW,2013-07-08 13:33:00,
2013-07-08 06:38:00,55.1,50.3,29.90,NNE,23,0.0,0.4,84,0.00,,,0.00,WUHU216HW,2013-07-08 13:38:00,
2013-07-08 06:43:00,55.1,50.3,29.90,NNE,23,0.4,0.4,84,0.00,,,0.00,WUHU216HW,2013-07-08 13:43:00,
2013-07-08 06:48:00,55.1,50.3,29.90,NNE,23,0.7,1.1,84,0.00,,,0.00,WUHU216HW,2013-07-08 13:48:00,
2013-07-08 06:53:00,55.1,50.3,29.91,NNE,23,0.7,2.2,84,0.00,,,0.00,WUHU216HW,2013-07-08 13:53:00,
2013-07-08 06:58:00,54.7,50.0,29.91,NNE,23,0.0,2.2,84,0.00,,,0.00,WUHU216HW,2013-07-08 13:58:00,
2013-07-08 07:03:00,54.7,50.0,29.90,NE,45,0.4,1.6,84,0.00,,,0.00,WUHU216HW,2013-07-08 14:03:00,
2013-07-08 07:08:00,54.7,50.0,29.91,North,0,0.2,0.4,84,0.00,,,0.00,WUHU216HW,2013-07-08 14:08:00,
2013-07-08 07:13:00,54.7,50.0,29.91,NNE,23,0.7,0.9,84,0.00,,,0.00,WUHU216HW,2013-07-08 14:13:00,
2013-07-08 07:18:00,54.7,50.0,29.90,NNE,23,0.2,0.9,84,0.00,,,0.00,WUHU216HW,2013-07-08 14:18:00,
2013-07-08 07:24:00,54.7,50.0,29.91,ENE,68,0.0,0.4,84,0.00,,,0.00,WUHU216HW,2013-07-08 14:24:00,
2013-07-08 07:29:00,54.7,50.0,29.92,SE,135,0.0,0.4,84,0.00,,,0.00,WUHU216HW,2013-07-08 14:29:00,
2013-07-08 07:34:00,54.9,50.1,29.92,ENE,68,0.4,0.7,84,0.00,,,0.00,WUHU216HW,2013-07-08 14:34:00,
2013-07-08 07:39:00,54.9,50.1,29.91,NNE,23,0.4,0.9,84,0.00,,,0.00,WUHU216HW,2013-07-08 14:39:00,
2013-07-08 07:44:00,54.7,50.0,29.94,NNE,23,0.4,1.8,84,0.00,,,0.00,WUHU216HW,2013-07-08 14:44:00,
2013-07-08 07:49:00,54.7,50.0,29.92,NNE,23,0.0,1.8,84,0.00,,,0.00,WUHU216HW,2013-07-08 14:49:00,
2013-07-08 07:54:00,54.9,50.1,29.93,NNE,23,0.0,0.4,84,0.00,,,0.00,WUHU216HW,2013-07-08 14:54:00,
2013-07-08 07:59:00,55.1,50.3,29.93,NNE,23,0.0,1.3,84,0.00,,,0.00,WUHU216HW,2013-07-08 14:59:00,
2013-07-08 08:05:00,55.1,50.3,29.92,NNE,23,0.7,1.3,84,0.00,,,0.00,WUHU216HW,2013-07-08 15:05:00,
2013-07-08 08:10:00,55.1,50.3,29.92,NE,45,1.1,2.2,84,0.00,,,0.00,WUHU216HW,2013-07-08 15:10:00,
2013-07-08 08:15:00,55.1,50.3,29.93,NNE,23,0.2,2.2,84,0.00,,,0.00,WUHU216HW,2013-07-08 15:15:00,
2013-07-08 08:20:00,55.1,50.0,29.94,North,0,0.7,1.8,83,0.00,,,0.00,WUHU216HW,2013-07-08 15:20:00,
2013-07-08 08:25:00,55.3,50.1,29.94,ESE,113,0.2,1.8,83,0.00,,,0.00,WUHU216HW,2013-07-08 15:25:00,
2013-07-08 08:30:00,55.6,50.5,29.94,SE,135,0.0,1.8,83,0.00,,,0.00,WUHU216HW,2013-07-08 15:30:00,
2013-07-08 08:35:00,55.8,50.7,29.93,West,270,1.1,1.1,83,0.00,,,0.00,WUHU216HW,2013-07-08 15:35:00,
2013-07-08 08:40:00,56.2,51.0,29.93,NE,45,0.7,1.3,83,0.00,,,0.00,WUHU216HW,2013-07-08 15:40:00,
2013-07-08 08:45:00,56.5,51.0,29.93,North,0,0.9,1.8,82,0.00,,,0.00,WUHU216HW,2013-07-08 15:45:00,
2013-07-08 08:50:00,56.5,51.4,29.94,North,0,0.4,1.8,83,0.00,,,0.00,WUHU216HW,2013-07-08 15:50:00,
2013-07-08 08:55:00,56.7,51.6,29.93,West,270,0.0,1.1,83,0.00,,,0.00,WUHU216HW,2013-07-08 15:55:00,
2013-07-08 09:00:00,56.9,51.4,29.93,South,180,0.4,1.1,82,0.00,,,0.00,WUHU216HW,2013-07-08 16:00:00,
2013-07-08 09:05:00,57.4,51.9,29.94,NNE,23,0.2,0.9,82,0.00,,,0.00,WUHU216HW,2013-07-08 16:05:00,
2013-07-08 09:10:00,58.0,52.2,29.94,North,0,1.6,1.8,81,0.00,,,0.00,WUHU216HW,2013-07-08 16:10:00,
2013-07-08 09:15:00,58.7,52.9,29.94,East,90,0.9,1.8,81,0.00,,,0.00,WUHU216HW,2013-07-08 16:15:00,
2013-07-08 09:21:00,59.4,53.3,29.94,ESE,113,0.9,1.6,80,0.00,,,0.00,WUHU216HW,2013-07-08 16:21:00,
2013-07-08 09:26:00,59.9,53.1,29.94,NNW,338,0.9,2.7,78,0.00,,,0.00,WUHU216HW,2013-07-08 16:26:00,
2013-07-08 09:31:00,60.5,53.3,29.94,NE,45,1.3,2.7,77,0.00,,,0.00,WUHU216HW,2013-07-08 16:31:00,
2013-07-08 09:36:00,61.2,53.7,29.94,NNE,23,1.1,2.5,76,0.00,,,0.00,WUHU216HW,2013-07-08 16:36:00,
2013-07-08 09:41:00,62.1,54.1,29.94,ENE,68,1.1,2.5,75,0.00,,,0.00,WUHU216HW,2013-07-08 16:41:00,
2013-07-08 09:46:00,62.6,53.8,29.94,ENE,68,2.0,2.7,73,0.00,,,0.00,WUHU216HW,2013-07-08 16:46:00,
2013-07-08 09:51:00,62.8,54.0,29.94,NNE,23,1.1,2.7,73,0.00,,,0.00,WUHU216HW,2013-07-08 16:51:00,
2013-07-08 09:56:00,63.4,54.2,29.94,ENE,68,0.4,2.9,72,0.00,,,0.00,WUHU216HW,2013-07-08 16:56:00,
2013-07-08 10:01:00,64.1,54.2,29.94,West,270,0.4,4.0,70,0.00,,,0.00,WUHU216HW,2013-07-08 17:01:00,
2013-07-08 10:06:00,64.6,54.3,29.95,NNE,23,2.7,4.0,69,0.00,,,0.00,WUHU216HW,2013-07-08 17:06:00,
2013-07-08 10:11:00,65.2,53.9,29.94,NE,45,2.9,4.3,67,0.00,,,0.00,WUHU216HW,2013-07-08 17:11:00,
2013-07-08 10:16:00,65.5,54.3,29.94,ESE,113,0.4,4.3,67,0.00,,,0.00,WUHU216HW,2013-07-08 17:16:00,
2013-07-08 10:21:00,65.9,53.7,29.94,NE,45,2.0,4.3,65,0.00,,,0.00,WUHU216HW,2013-07-08 17:21:00,
2013-07-08 10:27:00,65.9,53.7,29.95,North,0,4.3,5.4,65,0.00,,,0.00,WUHU216HW,2013-07-08 17:27:00,
2013-07-08 10:32:00,66.2,54.1,29.94,NW,315,1.1,5.4,65,0.00,,,0.00,WUHU216HW,2013-07-08 17:32:00,
2013-07-08 10:37:00,66.8,54.2,29.95,North,0,2.0,4.0,64,0.00,,,0.00,WUHU216HW,2013-07-08 17:37:00,
2013-07-08 10:42:00,67.3,54.7,29.96,NNE,23,5.4,5.4,64,0.00,,,0.00,WUHU216HW,2013-07-08 17:42:00,
2013-07-08 10:47:00,67.9,54.8,29.95,North,0,4.7,5.4,63,0.00,,,0.00,WUHU216HW,2013-07-08 17:47:00,
2013-07-08 10:52:00,68.4,54.9,29.95,NW,315,1.8,4.9,62,0.00,,,0.00,WUHU216HW,2013-07-08 17:52:00,
2013-07-08 10:58:00,68.8,55.2,29.95,NE,45,2.5,4.9,62,0.00,,,0.00,WUHU216HW,2013-07-08 17:58:00,
2013-07-08 11:03:00,69.1,55.2,29.95,NNE,23,1.6,5.8,61,0.00,,,0.00,WUHU216HW,2013-07-08 18:03:00,
2013-07-08 11:08:00,69.8,55.4,29.95,West,270,1.1,5.8,60,0.00,,,0.00,WUHU216HW,2013-07-08 18:08:00,
2013-07-08 11:13:00,70.4,55.9,29.95,NE,45,3.4,4.7,60,0.00,,,0.00,WUHU216HW,2013-07-08 18:13:00,
2013-07-08 11:19:00,70.9,55.9,29.96,NNE,23,1.3,4.0,59,0.00,,,0.00,WUHU216HW,2013-07-08 18:19:00,
2013-07-08 11:24:00,71.3,56.3,29.96,East,90,1.1,4.0,59,0.00,,,0.00,WUHU216HW,2013-07-08 18:24:00,
2013-07-08 11:30:00,71.6,56.1,29.94,North,0,1.8,3.8,58,0.00,,,0.00,WUHU216HW,2013-07-08 18:30:00,
2013-07-08 11:35:00,71.5,55.9,29.96,North,0,1.6,4.5,58,0.00,,,0.00,WUHU216HW,2013-07-08 18:35:00,
2013-07-08 11:40:00,71.5,55.4,29.95,NNW,338,4.0,5.1,57,0.00,,,0.00,WUHU216HW,2013-07-08 18:40:00,
2013-07-08 11:45:00,71.5,55.9,29.96,NNE,23,1.8,5.1,58,0.00,,,0.00,WUHU216HW,2013-07-08 18:45:00,
2013-07-08 11:50:00,71.6,55.5,29.96,NE,45,3.4,5.6,57,0.00,,,0.00,WUHU216HW,2013-07-08 18:50:00,
2013-07-08 11:55:00,71.6,55.5,29.96,West,270,1.3,5.6,57,0.00,,,0.00,WUHU216HW,2013-07-08 18:55:00,
2013-07-08 12:00:00,72.0,55.4,29.95,NNE,23,2.2,5.1,56,0.00,,,0.00,WUHU216HW,2013-07-08 19:00:00,
2013-07-08 12:06:00,71.8,55.7,29.96,WNW,293,1.8,5.1,57,0.00,,,0.00,WUHU216HW,2013-07-08 19:06:00,
2013-07-08 12:11:00,72.4,55.7,29.95,North,0,4.3,4.5,56,0.00,,,0.00,WUHU216HW,2013-07-08 19:11:00,
2013-07-08 12:16:00,72.5,55.4,29.96,NNE,23,1.6,4.3,55,0.00,,,0.00,WUHU216HW,2013-07-08 19:16:00,
2013-07-08 12:21:00,72.7,55.5,29.96,NNE,23,3.4,4.7,55,0.00,,,0.00,WUHU216HW,2013-07-08 19:21:00,
2013-07-08 12:26:00,72.5,55.4,29.96,NE,45,1.8,5.4,55,0.00,,,0.00,WUHU216HW,2013-07-08 19:26:00,
2013-07-08 12:31:00,72.4,55.2,29.95,NNE,23,1.1,6.0,55,0.00,,,0.00,WUHU216HW,2013-07-08 19:31:00,
2013-07-08 12:36:00,72.9,55.7,29.95,NNE,23,2.5,6.0,55,0.00,,,0.00,WUHU216HW,2013-07-08 19:36:00,
2013-07-08 12:41:00,73.1,55.4,29.95,North,0,3.1,5.4,54,0.00,,,0.00,WUHU216HW,2013-07-08 19:41:00,
2013-07-08 12:46:00,72.9,54.6,29.96,North,0,2.9,6.5,53,0.00,,,0.00,WUHU216HW,2013-07-08 19:46:00,
2013-07-08 12:52:00,73.1,55.4,29.96,NNW,338,1.1,6.5,54,0.00,,,0.00,WUHU216HW,2013-07-08 19:52:00,
2013-07-08 12:57:00,73.1,54.4,29.96,NNW,338,1.8,7.6,52,0.00,,,0.00,WUHU216HW,2013-07-08 19:57:00,
2013-07-08 13:02:00,72.7,54.6,29.99,NNE,23,6.5,7.6,53,0.00,,,0.00,WUHU216HW,2013-07-08 20:02:00,
2013-07-08 13:08:00,72.4,54.2,29.99,NNE,23,5.4,6.5,53,0.00,,,0.00,WUHU216HW,2013-07-08 20:08:00,
2013-07-08 13:13:00,72.7,54.6,29.98,North,0,4.0,6.9,53,0.00,,,0.00,WUHU216HW,2013-07-08 20:13:00,
2013-07-08 13:18:00,73.1,54.8,29.99,ENE,68,2.0,6.9,53,0.00,,,0.00,WUHU216HW,2013-07-08 20:18:00,
2013-07-08 13:23:00,72.5,54.4,29.99,NNW,338,1.1,7.6,53,0.00,,,0.00,WUHU216HW,2013-07-08 20:23:00,
2013-07-08 13:29:00,72.4,54.2,29.99,NNE,23,2.5,7.6,53,0.00,,,0.00,WUHU216HW,2013-07-08 20:29:00,
2013-07-08 13:34:00,72.4,54.7,29.99,NE,45,2.2,5.6,54,0.00,,,0.00,WUHU216HW,2013-07-08 20:34:00,
2013-07-08 13:39:00,72.9,54.6,30.01,NE,45,2.5,5.4,53,0.00,,,0.00,WUHU216HW,2013-07-08 20:39:00,
2013-07-08 13:46:00,73.4,55.2,29.99,North,0,2.2,6.3,53,0.00,,,0.00,WUHU216HW,2013-07-08 20:46:00,
2013-07-08 13:51:00,73.8,55.0,30.00,NW,315,1.6,6.3,52,0.00,,,0.00,WUHU216HW,2013-07-08 20:51:00,
2013-07-08 13:56:00,73.8,54.6,30.00,NNE,23,4.7,6.3,51,0.00,,,0.00,WUHU216HW,2013-07-08 20:56:00,
2013-07-08 14:01:00,73.6,54.8,30.00,NNW,338,4.5,6.9,52,0.00,,,0.00,WUHU216HW,2013-07-08 21:01:00,
2013-07-08 14:07:00,74.0,54.7,29.99,NNE,23,6.9,6.9,51,0.00,,,0.00,WUHU216HW,2013-07-08 21:07:00,
2013-07-08 14:12:00,74.2,54.9,29.99,NNE,23,5.4,6.9,51,0.00,,,0.00,WUHU216HW,2013-07-08 21:12:00,
2013-07-08 14:17:00,74.2,54.9,29.99,NNE,23,0.9,6.5,51,0.00,,,0.00,WUHU216HW,2013-07-08 21:17:00,
2013-07-08 14:22:00,74.5,54.7,30.00,NNE,23,2.9,4.7,50,0.00,,,0.00,WUHU216HW,2013-07-08 21:22:00,
2013-07-08 14:28:00,74.3,54.5,30.00,NNE,23,6.0,6.0,50,0.00,,,0.00,WUHU216HW,2013-07-08 21:28:00,
2013-07-08 14:33:00,74.5,54.7,29.99,North,0,2.7,6.0,50,0.00,,,0.00,WUHU216HW,2013-07-08 21:33:00,
2013-07-08 14:38:00,74.7,54.9,30.00,NE,45,4.5,5.4,50,0.00,,,0.00,WUHU216HW,2013-07-08 21:38:00,
2013-07-08 14:44:00,75.1,55.3,29.98,WSW,248,1.1,5.4,50,0.00,,,0.00,WUHU216HW,2013-07-08 21:44:00,
2013-07-08 14:49:00,75.2,54.8,29.96,NE,45,2.5,4.7,49,0.00,,,0.00,WUHU216HW,2013-07-08 21:49:00,
2013-07-08 14:54:00,75.1,54.0,29.96,North,0,5.1,6.7,48,0.00,,,0.00,WUHU216HW,2013-07-08 21:54:00,
2013-07-08 14:59:00,74.7,54.9,29.97,NNW,338,1.8,6.7,50,0.00,,,0.00,WUHU216HW,2013-07-08 21:59:00,
2013-07-08 15:05:00,74.5,54.1,29.96,NE,45,4.7,5.4,49,0.00,,,0.00,WUHU216HW,2013-07-08 22:05:00,
2013-07-08 15:10:00,74.3,54.5,29.96,NNW,338,2.7,6.3,50,0.00,,,0.00,WUHU216HW,2013-07-08 22:10:00,
2013-07-08 15:15:00,74.2,53.7,29.97,NNE,23,1.8,7.4,49,0.00,,,0.00,WUHU216HW,2013-07-08 22:15:00,
2013-07-08 15:21:00,73.8,53.4,29.96,NNE,23,3.4,7.4,49,0.00,,,0.00,WUHU216HW,2013-07-08 22:21:00,
2013-07-08 15:26:00,73.6,54.4,29.96,ENE,68,0.4,6.3,51,0.00,,,0.00,WUHU216HW,2013-07-08 22:26:00,
2013-07-08 15:31:00,73.8,54.6,29.96,NE,45,2.5,6.3,51,0.00,,,0.00,WUHU216HW,2013-07-08 22:31:00,
2013-07-08 15:36:00,74.2,54.4,29.96,NE,45,2.9,6.3,50,0.00,,,0.00,WUHU216HW,2013-07-08 22:36:00,
2013-07-08 15:41:00,74.0,54.7,29.96,NNE,23,3.8,6.3,51,0.00,,,0.00,WUHU216HW,2013-07-08 22:41:00,
2013-07-08 15:47:00,73.6,54.8,29.97,NNE,23,1.8,5.6,52,0.00,,,0.00,WUHU216HW,2013-07-08 22:47:00,
2013-07-08 15:52:00,73.4,54.6,29.96,NE,45,2.5,6.3,52,0.00,,,0.00,WUHU216HW,2013-07-08 22:52:00,
2013-07-08 15:58:00,73.3,54.5,29.96,ENE,68,2.0,6.3,52,0.00,,,0.00,WUHU216HW,2013-07-08 22:58:00,
2013-07-08 16:03:00,73.1,54.4,29.96,NNW,338,7.2,7.2,52,0.00,,,0.00,WUHU216HW,2013-07-08 23:03:00,
2013-07-08 16:08:00,72.7,54.6,29.96,NNE,23,2.9,7.2,53,0.00,,,0.00,WUHU216HW,2013-07-08 23:08:00,
2013-07-08 16:13:00,72.5,54.4,29.96,NE,45,4.3,5.8,53,0.00,,,0.00,WUHU216HW,2013-07-08 23:13:00,
2013-07-08 16:19:00,72.4,54.7,29.96,ENE,68,2.9,5.6,54,0.00,,,0.00,WUHU216HW,2013-07-08 23:19:00,
2013-07-08 16:24:00,72.2,54.6,29.96,NNW,338,4.0,5.4,54,0.00,,,0.00,WUHU216HW,2013-07-08 23:24:00,
2013-07-08 16:29:00,71.8,54.7,29.97,NNW,338,3.8,5.6,55,0.00,,,0.00,WUHU216HW,2013-07-08 23:29:00,
2013-07-08 16:34:00,71.5,54.9,29.96,NNE,23,2.0,5.6,56,0.00,,,0.00,WUHU216HW,2013-07-08 23:34:00,
2013-07-08 16:39:00,71.3,54.7,29.97,NNE,23,2.2,6.5,56,0.00,,,0.00,WUHU216HW,2013-07-08 23:39:00,
2013-07-08 16:45:00,71.1,55.1,29.96,North,0,1.1,6.5,57,0.00,,,0.00,WUHU216HW,2013-07-08 23:45:00,
2013-07-08 16:50:00,71.1,55.1,29.96,NW,315,1.1,4.3,57,0.00,,,0.00,WUHU216HW,2013-07-08 23:50:00,
2013-07-08 16:55:00,71.3,55.3,29.95,NNE,23,1.1,2.5,57,0.00,,,0.00,WUHU216HW,2013-07-08 23:55:00,
2013-07-08 17:01:00,71.5,55.4,29.95,ENE,68,2.2,3.6,57,0.00,,,0.00,WUHU216HW,2013-07-09 00:01:00,
2013-07-08 17:07:00,71.3,55.3,29.95,North,0,3.1,4.7,57,0.00,,,0.00,WUHU216HW,2013-07-09 00:07:00,
2013-07-08 17:12:00,70.9,55.5,29.95,NNE,23,1.8,4.9,58,0.00,,,0.00,WUHU216HW,2013-07-09 00:12:00,
2013-07-08 17:17:00,70.7,55.3,29.95,NNE,23,1.1,4.9,58,0.00,,,0.00,WUHU216HW,2013-07-09 00:17:00,
2013-07-08 17:24:00,70.6,55.6,29.96,NNE,23,1.3,3.4,59,0.00,,,0.00,WUHU216HW,2013-07-09 00:24:00,
2013-07-08 17:29:00,70.4,54.9,29.96,NNE,23,1.1,3.4,58,0.00,,,0.00,WUHU216HW,2013-07-09 00:29:00,
2013-07-08 17:35:00,70.2,54.7,29.95,West,270,0.2,3.4,58,0.00,,,0.00,WUHU216HW,2013-07-09 00:35:00,
2013-07-08 17:40:00,70.2,55.3,29.95,North,0,1.3,3.4,59,0.00,,,0.00,WUHU216HW,2013-07-09 00:40:00,
2013-07-08 17:45:00,70.2,55.3,29.96,NE,45,0.7,3.4,59,0.00,,,0.00,WUHU216HW,2013-07-09 00:45:00,
2013-07-08 17:50:00,70.2,55.3,29.95,NNE,23,0.9,2.5,59,0.00,,,0.00,WUHU216HW,2013-07-09 00:50:00,
2013-07-08 17:56:00,70.6,55.6,29.95,North,0,0.7,1.6,59,0.00,,,0.00,WUHU216HW,2013-07-09 00:56:00,
2013-07-08 18:01:00,70.7,55.7,29.95,NNW,338,0.4,1.6,59,0.00,,,0.00,WUHU216HW,2013-07-09 01:01:00,
2013-07-08 18:07:00,71.1,56.1,29.95,East,90,1.1,1.8,59,0.00,,,0.00,WUHU216HW,2013-07-09 01:07:00,
2013-07-08 18:12:00,71.6,56.1,29.95,NNE,23,1.3,2.9,58,0.00,,,0.00,WUHU216HW,2013-07-09 01:12:00,
2013-07-08 18:17:00,71.6,56.1,29.95,WNW,293,0.2,2.9,58,0.00,,,0.00,WUHU216HW,2013-07-09 01:17:00,
2013-07-08 18:22:00,71.5,55.9,29.96,WNW,293,0.0,2.5,58,0.00,,,0.00,WUHU216HW,2013-07-09 01:22:00,
2013-07-08 18:28:00,71.1,55.5,29.96,NNW,338,3.1,3.1,58,0.00,,,0.00,WUHU216HW,2013-07-09 01:28:00,
2013-07-08 18:33:00,70.9,55.9,29.95,NNW,338,0.4,3.1,59,0.00,,,0.00,WUHU216HW,2013-07-09 01:33:00,
2013-07-08 18:38:00,70.9,55.5,29.96,West,270,1.3,1.3,58,0.00,,,0.00,WUHU216HW,2013-07-09 01:38:00,
2013-07-08 18:43:00,70.9,55.5,29.95,West,270,0.0,1.3,58,0.00,,,0.00,WUHU216HW,2013-07-09 01:43:00,
2013-07-08 18:49:00,71.3,55.7,29.96,NNE,23,0.0,1.3,58,0.00,,,0.00,WUHU216HW,2013-07-09 01:49:00,
2013-07-08 18:54:00,71.5,55.9,29.96,WNW,293,0.0,0.9,58,0.00,,,0.00,WUHU216HW,2013-07-09 01:54:00,
2013-07-08 18:59:00,71.3,55.7,29.95,North,0,0.4,1.3,58,0.00,,,0.00,WUHU216HW,2013-07-09 01:59:00,
2013-07-08 19:04:00,71.1,55.5,29.96,NE,45,0.0,1.3,58,0.00,,,0.00,WUHU216HW,2013-07-09 02:04:00,
2013-07-08 19:09:00,69.8,54.9,29.96,NW,315,0.7,1.1,59,0.00,,,0.00,WUHU216HW,2013-07-09 02:09:00,
2013-07-08 19:14:00,68.4,54.0,29.96,West,270,0.0,1.1,60,0.00,,,0.00,WUHU216HW,2013-07-09 02:14:00,
2013-07-08 19:19:00,68.0,54.6,29.95,West,270,0.4,1.1,62,0.00,,,0.00,WUHU216HW,2013-07-09 02:19:00,
2013-07-08 19:24:00,67.3,53.8,29.96,West,270,0.9,1.1,62,0.00,,,0.00,WUHU216HW,2013-07-09 02:24:00,
2013-07-08 19:29:00,67.1,54.1,29.95,West,270,0.4,0.9,63,0.00,,,0.00,WUHU216HW,2013-07-09 02:29:00,
2013-07-08 19:35:00,67.0,54.4,29.96,West,270,0.0,0.9,64,0.00,,,0.00,WUHU216HW,2013-07-09 02:35:00,
2013-07-08 19:40:00,66.8,54.2,29.96,West,270,0.4,0.4,64,0.00,,,0.00,WUHU216HW,2013-07-09 02:40:00,
2013-07-08 19:45:00,66.4,53.8,29.96,West,270,0.0,0.7,64,0.00,,,0.00,WUHU216HW,2013-07-09 02:45:00,
2013-07-08 19:51:00,66.2,54.1,29.96,West,270,0.7,0.9,65,0.00,,,0.00,WUHU216HW,2013-07-09 02:51:00,
2013-07-08 19:56:00,65.9,53.7,29.97,West,270,0.4,0.9,65,0.00,,,0.00,WUHU216HW,2013-07-09 02:56:00,
2013-07-08 20:01:00,65.9,53.7,29.96,West,270,0.4,0.9,65,0.00,,,0.00,WUHU216HW,2013-07-09 03:01:00,
2013-07-08 20:06:00,65.9,53.7,29.96,West,270,0.0,0.7,65,0.00,,,0.00,WUHU216HW,2013-07-09 03:06:00,
2013-07-08 20:11:00,65.5,53.4,29.96,West,270,0.0,0.4,65,0.00,,,0.00,WUHU216HW,2013-07-09 03:11:00,
2013-07-08 20:16:00,65.5,53.4,29.96,West,270,0.0,0.0,65,0.00,,,0.00,WUHU216HW,2013-07-09 03:16:00,
2013-07-08 20:22:00,65.3,53.3,29.96,West,270,0.0,0.0,65,0.00,,,0.00,WUHU216HW,2013-07-09 03:22:00,
2013-07-08 20:27:00,65.2,53.1,29.96,West,270,0.0,0.0,65,0.00,,,0.00,WUHU216HW,2013-07-09 03:27:00,
2013-07-08 20:32:00,65.0,52.9,29.97,West,270,0.0,0.0,65,0.00,,,0.00,WUHU216HW,2013-07-09 03:32:00,
2013-07-08 20:37:00,64.8,52.8,29.98,West,270,0.0,0.0,65,0.00,,,0.00,WUHU216HW,2013-07-09 03:37:00,
2013-07-08 20:43:00,64.8,52.8,29.96,West,270,0.0,0.0,65,0.00,,,0.00,WUHU216HW,2013-07-09 03:43:00,
2013-07-08 20:48:00,64.8,52.8,29.96,West,270,0.0,0.0,65,0.00,,,0.00,WUHU216HW,2013-07-09 03:48:00,
2013-07-08 20:53:00,64.8,52.8,29.96,West,270,0.0,0.0,65,0.00,,,0.00,WUHU216HW,2013-07-09 03:53:00,
2013-07-08 20:59:00,64.6,52.6,29.97,West,270,0.0,0.0,65,0.00,,,0.00,WUHU216HW,2013-07-09 03:59:00,
2013-07-08 21:01:00,64.4,52.4,29.96,West,270,0.0,0.4,65,0.00,,,0.00,WUHU216HW,2013-07-09 04:01:00,
2013-07-08 21:02:00,64.4,52.4,29.96,West,270,0.0,0.4,65,0.00,,,0.00,WUHU216HW,2013-07-09 04:02:00,
2013-07-08 21:03:00,64.4,52.4,29.96,West,270,0.0,0.4,65,0.00,,,0.00,WUHU216HW,2013-07-09 04:03:00,
2013-07-08 21:08:00,64.3,52.2,29.97,West,270,0.0,0.4,65,0.00,,,0.00,WUHU216HW,2013-07-09 04:08:00,
2013-07-08 21:13:00,64.1,52.5,29.98,West,270,0.0,0.0,66,0.00,,,0.00,WUHU216HW,2013-07-09 04:13:00,
2013-07-08 21:19:00,63.7,52.1,29.96,West,270,0.0,0.0,66,0.00,,,0.00,WUHU216HW,2013-07-09 04:19:00,
2013-07-08 21:24:00,63.5,51.9,29.97,West,270,0.0,0.0,66,0.00,,,0.00,WUHU216HW,2013-07-09 04:24:00,
2013-07-08 21:29:00,63.4,51.8,29.96,West,270,0.0,0.0,66,0.00,,,0.00,WUHU216HW,2013-07-09 04:29:00,
2013-07-08 21:34:00,63.0,51.8,29.97,West,270,0.0,0.0,67,0.00,,,0.00,WUHU216HW,2013-07-09 04:34:00,
2013-07-08 21:39:00,63.0,51.8,29.98,West,270,0.0,0.0,67,0.00,,,0.00,WUHU216HW,2013-07-09 04:39:00,
2013-07-08 21:44:00,62.6,51.5,29.97,West,270,0.0,0.0,67,0.00,,,0.00,WUHU216HW,2013-07-09 04:44:00,
2013-07-08 21:49:00,62.3,51.2,29.97,West,270,0.0,0.0,67,0.00,,,0.00,WUHU216HW,2013-07-09 04:49:00,
2013-07-08 21:54:00,62.3,51.6,29.96,West,270,0.0,0.0,68,0.00,,,0.00,WUHU216HW,2013-07-09 04:54:00,
2013-07-08 21:59:00,62.1,51.4,29.98,West,270,0.0,0.0,68,0.00,,,0.00,WUHU216HW,2013-07-09 04:59:00,
2013-07-08 22:04:00,61.9,51.3,29.97,West,270,0.0,0.0,68,0.00,,,0.00,WUHU216HW,2013-07-09 05:04:00,
2013-07-08 22:10:00,61.7,51.1,29.98,WSW,248,0.0,0.4,68,0.00,,,0.00,WUHU216HW,2013-07-09 05:10:00,
2013-07-08 22:15:00,61.6,51.4,29.97,WSW,248,0.0,0.4,69,0.00,,,0.00,WUHU216HW,2013-07-09 05:15:00,
2013-07-08 22:20:00,61.4,51.2,29.97,WSW,248,0.4,0.4,69,0.00,,,0.00,WUHU216HW,2013-07-09 05:20:00,
2013-07-08 22:25:00,61.4,51.2,29.98,SSW,203,0.4,0.9,69,0.00,,,0.00,WUHU216HW,2013-07-09 05:25:00,
2013-07-08 22:30:00,61.6,51.4,29.98,SSW,203,0.2,0.9,69,0.00,,,0.00,WUHU216HW,2013-07-09 05:30:00,
2013-07-08 22:35:00,61.6,51.4,29.98,SSW,203,0.4,0.7,69,0.00,,,0.00,WUHU216HW,2013-07-09 05:35:00,
2013-07-08 22:40:00,61.4,51.2,29.97,SW,225,0.7,0.7,69,0.00,,,0.00,WUHU216HW,2013-07-09 05:40:00,
2013-07-08 22:45:00,61.4,51.2,29.97,West,270,0.4,0.9,69,0.00,,,0.00,WUHU216HW,2013-07-09 05:45:00,
2013-07-08 22:51:00,61.4,51.2,29.99,West,270,0.0,0.9,69,0.00,,,0.00,WUHU216HW,2013-07-09 05:51:00,
2013-07-08 22:56:00,61.4,51.2,29.98,West,270,0.0,0.9,69,0.00,,,0.00,WUHU216HW,2013-07-09 05:56:00,
2013-07-08 23:01:00,61.6,50.9,29.99,SW,225,0.7,1.1,68,0.00,,,0.00,WUHU216HW,2013-07-09 06:01:00,
2013-07-08 23:06:00,61.6,50.9,29.98,SW,225,0.4,1.1,68,0.00,,,0.00,WUHU216HW,2013-07-09 06:06:00,
2013-07-08 23:11:00,61.7,51.1,29.98,SW,225,0.4,0.9,68,0.00,,,0.00,WUHU216HW,2013-07-09 06:11:00,
2013-07-08 23:16:00,61.9,50.9,29.97,SW,225,0.7,0.7,67,0.00,,,0.00,WUHU216HW,2013-07-09 06:16:00,
2013-07-08 23:21:00,61.9,50.9,29.98,SW,225,0.7,1.1,67,0.00,,,0.00,WUHU216HW,2013-07-09 06:21:00,
2013-07-08 23:26:00,61.9,50.9,29.98,SW,225,0.7,1.1,67,0.00,,,0.00,WUHU216HW,2013-07-09 06:26:00,
2013-07-08 23:32:00,61.9,50.9,29.99,SW,225,0.9,1.1,67,0.00,,,0.00,WUHU216HW,2013-07-09 06:32:00,
2013-07-08 23:37:00,61.9,50.9,29.98,SW,225,0.7,1.1,67,0.00,,,0.00,WUHU216HW,2013-07-09 06:37:00,
2013-07-08 23:42:00,61.9,50.9,29.98,SW,225,0.9,0.9,67,0.00,,,0.00,WUHU216HW,2013-07-09 06:42:00,
2013-07-08 23:47:00,61.9,50.4,29.99,SW,225,1.1,1.1,66,0.00,,,0.00,WUHU216HW,2013-07-09 06:47:00,
2013-07-08 23:52:00,61.9,50.4,29.99,SW,225,0.4,1.1,66,0.00,,,0.00,WUHU216HW,2013-07-09 06:52:00,
2013-07-08 23:57:00,61.9,50.4,29.97,SW,225,0.7,1.1,66,0.00,,,0.00,WUHU216HW,2013-07-09 06:57:00,